Caldwell, NJ

6:00 PM EDT on June 28, 2017 (GMT -0400)
Essex County

Weather History for KCDW - March, 2014

Change the Weather History Date:

Thursday, March 20, 2014

  Actual Average Record
Temperature  
Mean Temperature 44 °F -  
Max Temperature 53 °F 49 °F 73 °F (2012)
Min Temperature 37 °F 28 °F -3 °F (1967)
Degree Days  
Heating Degree Days 20    
Moisture  
Dew Point 32 °F    
Average Humidity 72    
Maximum Humidity 97    
Minimum Humidity 32    
Precipitation  
Precipitation 0.00 in - - ()
Sea Level Pressure  
Sea Level Pressure 29.80 in    
Wind  
Wind Speed 6 mph (WNW)    
Max Wind Speed 21 mph    
Max Gust Speed 34 mph    
Visibility 7 miles    
Events Rain    
Averages and records for this station are not official NWS values.
T = Trace of Precipitation, MM = Missing Value Source: NWS Daily Summary

Daily Weather History Graph

Daily Weather History Graph

Search for Another Location

Airport or City:

Trip Planner

Search our weather history database for the weather conditions in past years. The results will help you decide how hot, cold, wet, or windy it might be!

Date:

Astronomy

Mar. 20, 2014 Rise Set
Actual Time 7:00 AM EDT 7:09 PM EDT
Civil Twilight 6:33 AM EDT 7:36 PM EDT
Nautical Twilight 6:01 AM EDT 8:08 PM EDT
Astronomical Twilight 5:28 AM EDT 8:41 PM EDT
Moon 11:28 PM EDT (3/20) 9:03 AM EDT (3/20)
Length of Visible Light 13h 03m
Length of Day
12h 08m
Waning Gibbous, 84% of the Moon is Illuminated
Mar 20
Waning Gibbous
Mar 23
Last Quarter
Mar 30
New
Apr 7
First Quarter
Apr 15
Full

Hourly Weather History & Observations

Time (EDT) Temp. Windchill Dew Point Humidity Pressure Visibility Wind Dir Wind Speed Gust Speed Precip Events Conditions
12:04 AM 39.2 °F 33.0 °F 37.4 °F 93% 29.83 in 4.0 mi ENE 9.2 mph - 0.00 in Rain Light Rain
12:16 AM 39.2 °F 33.0 °F 37.4 °F 93% 29.82 in 4.0 mi East 9.2 mph - 0.00 in Rain Light Rain
12:33 AM 39.2 °F - 37.4 °F 93% 29.82 in 8.0 mi Calm Calm - 0.00 in   Overcast
12:53 AM 39.0 °F - 37.0 °F 93% 29.84 in 4.0 mi Calm Calm - 0.00 in   Overcast
1:06 AM 39.2 °F - 37.4 °F 93% 29.81 in 2.5 mi Calm Calm - N/A   Overcast
1:21 AM 39.2 °F - 37.4 °F 93% 29.81 in 2.5 mi Calm Calm - N/A   Overcast
1:53 AM 37.9 °F - 37.0 °F 97% 29.81 in 3.0 mi Calm Calm - N/A   Overcast
2:08 AM 39.2 °F 35.0 °F 37.4 °F 93% 29.77 in 3.0 mi ENE 5.8 mph - N/A   Overcast
2:53 AM 39.0 °F - 37.9 °F 96% 29.79 in 9.0 mi Calm Calm - N/A   Overcast
3:53 AM 37.9 °F - 37.0 °F 97% 29.77 in 4.0 mi Calm Calm - N/A   Overcast
4:06 AM 39.2 °F - 37.4 °F 93% 29.75 in 2.5 mi Calm Calm - N/A   Overcast
4:42 AM 39.2 °F - 37.4 °F 93% 29.75 in 3.0 mi Calm Calm - N/A   Overcast
4:53 AM 39.0 °F - 37.0 °F 93% 29.78 in 3.0 mi Calm Calm - N/A   Overcast
5:02 AM 39.2 °F - 37.4 °F 93% 29.75 in 3.0 mi Calm Calm - N/A   Overcast
5:43 AM 39.2 °F - 37.4 °F 93% 29.75 in 5.0 mi Calm Calm - N/A   Overcast
5:53 AM 39.0 °F - 37.9 °F 96% 29.77 in 4.0 mi Calm Calm - N/A   Overcast
6:03 AM 39.2 °F - 37.4 °F 93% 29.74 in 6.0 mi Calm Calm - N/A   Overcast
6:53 AM 39.9 °F 36.7 °F 37.9 °F 93% 29.78 in 7.0 mi WSW 4.6 mph - N/A   Overcast
7:53 AM 39.9 °F 36.7 °F 37.9 °F 93% 29.79 in 9.0 mi WSW 4.6 mph - N/A   Overcast
8:53 AM 42.1 °F 37.7 °F 37.9 °F 85% 29.80 in 8.0 mi Variable 6.9 mph - N/A   Overcast
9:43 AM 44.6 °F 40.2 °F 39.2 °F 81% 29.78 in 10.0 mi West 8.1 mph - N/A   Scattered Clouds
9:53 AM 46.0 °F 41.9 °F 39.0 °F 76% 29.80 in 10.0 mi WSW 8.1 mph - N/A   Scattered Clouds
10:53 AM 46.0 °F 41.0 °F 35.1 °F 66% 29.81 in 10.0 mi West 10.4 mph 20.7 mph N/A   Overcast
11:53 AM 50.0 °F - 28.9 °F 44% 29.79 in 10.0 mi NW 16.1 mph 34.5 mph N/A   Partly Cloudy
12:53 PM 50.0 °F - 25.0 °F 38% 29.78 in 10.0 mi WNW 17.3 mph 33.4 mph N/A   Mostly Cloudy
1:53 PM 52.0 °F - 26.1 °F 37% 29.77 in 10.0 mi WNW 15.0 mph 27.6 mph N/A   Partly Cloudy
2:53 PM 51.1 °F - 25.0 °F 36% 29.76 in 10.0 mi WNW 15.0 mph 24.2 mph N/A   Mostly Cloudy
3:53 PM 52.0 °F - 23.0 °F 32% 29.77 in 10.0 mi West 8.1 mph 24.2 mph N/A   Scattered Clouds
4:53 PM 50.0 °F - 23.0 °F 35% 29.79 in 10.0 mi West 17.3 mph 24.2 mph N/A   Scattered Clouds
5:53 PM 48.9 °F - 21.0 °F 33% 29.81 in 10.0 mi WNW 19.6 mph 26.5 mph N/A   Scattered Clouds
6:53 PM 46.9 °F - 21.0 °F 36% 29.83 in 10.0 mi WNW 20.7 mph 28.8 mph N/A   Clear
7:53 PM 45.0 °F 38.5 °F 21.9 °F 40% 29.86 in 10.0 mi West 13.8 mph 23.0 mph N/A   Clear
8:53 PM 43.0 °F 35.7 °F 21.9 °F 43% 29.90 in 10.0 mi WNW 15.0 mph 23.0 mph N/A   Clear
9:53 PM 42.1 °F 34.9 °F 19.9 °F 41% 29.92 in 10.0 mi West 13.8 mph 23.0 mph N/A   Clear
10:53 PM 39.9 °F 35.8 °F 21.9 °F 49% 29.93 in 10.0 mi West 5.8 mph - N/A   Scattered Clouds
11:53 PM 39.9 °F 34.5 °F 21.9 °F 49% 29.93 in 10.0 mi WNW 8.1 mph - N/A   Mostly Cloudy